Dewpoint
27 32 35 29 30 23 15 26 14 16 14 17 19 20 38 50 53 55 56 56 55 57 58 59 63 65 66 66 66 70 69 70
23 29 32 30 23 19 15 14 16 15 14 14 16 16 21 46 52 55 57 55 54 57 58 59 62 65 67 67 66 69 70 69
22 25 26 27 21 18 18 16 13 14 14 17 17 21 18 42 48 53 55 54 53 56 58 58 60 64 68 68 68 69 71 71
23 20 24 28 21 17 14 13 17 18 15 24 18 19 19 23 51 52 53 54 54 57 57 58 59 62 66 69 69 70 71 71
23 18 19 18 27 17 16 16 15 13 14 21 21 26 29 21 30 48 51 53 55 56 57 58 58 61 65 69 70 70 70 70
27 24 27 19 20 21 15 15 14 15 17 21 23 26 26 22 32 40 49 54 55 56 57 58 58 60 64 65 70 70 70 71
27 28 30 30 24 23 17 16 15 16 18 20 25 36 35 34 36 43 52 54 55 57 57 59 59 59 63 64 68 70 71 71
25 33 33 27 27 27 17 18 19 19 18 21 30 39 39 42 44 46 52 55 56 57 58 59 59 60 62 63 66 69 70 71
27 32 31 30 31 28 19 19 19 21 21 34 40 50 51 35 37 44 51 55 57 58 58 59 60 60 61 62 64 68 70 70
27 31 28 32 33 36 41 41 41 45 43 48 54 55 56 57 50 50 51 50 48 55 58 61 61 60 61 62 63 64 66 70
27 30 31 34 35 33 36 39 39 41 49 53 53 54 55 57 60 58 56 57 57 57 54 54 62 62 62 62 63 64 65 66
25 30 31 35 36 40 41 37 39 44 51 50 46 52 54 58 63 64 60 58 56 55 58 58 58 62 63 62 63 63 64 66
28 34 35 37 37 37 36 38 39 42 45 48 53 54 56 58 60 65 65 64 63 65 63 58 57 59 62 64 64 65 66 66
34 34 35 42 39 34 35 36 36 41 45 44 43 45 53 58 58 60 63 66 68 70 70 71 68 64 68 67 68 67 69 70
36 38 42 47 45 40 39 37 40 38 42 43 43 41 43 57 57 57 60 62 65 68 69 69 70 70 69 70 71 70 69 69
32 38 35 44 45 42 39 40 40 40 36 43 42 41 40 43 58 58 59 61 63 64 68 68 69 69 69 69 70 70 70 71
30 33 35 39 38 40 38 39 41 42 42 44 40 39 40 41 47 59 60 61 62 64 65 66 67 66 67 68 69 69 70 72
31 35 36 35 37 38 38 38 42 43 42 43 42 41 47 48 50 59 60 61 63 63 65 66 66 66 67 68 69 68 68 71
38 39 38 39 40 39 38 39 43 43 42 42 44 46 50 52 56 58 59 59 60 62 64 65 65 65 66 68 67 66 67 64
Lifted_Index
3 2 2 3 4 4 4 3 2 3 3 3 3 3 2 -0 -2 -3 -2 -2 -2 -3 -3 -2 -2 -2 -2 -2 -2 -2 -3 -2
2 2 2 3 3 4 4 3 2 2 3 3 3 2 2 0 -1 -2 -2 -2 -2 -3 -3 -3 -2 -2 -2 -2 -2 -3 -3 -2
2 2 2 2 3 3 3 3 2 2 2 3 2 2 1 0 -1 -2 -2 -2 -3 -3 -3 -3 -2 -2 -2 -3 -3 -3 -3 -3
2 3 2 2 2 3 3 3 3 2 2 2 2 1 1 0 -1 -1 -1 -2 -2 -3 -3 -3 -3 -2 -3 -3 -3 -3 -4 -4
3 3 2 1 1 3 3 3 3 2 2 2 2 1 1 0 -0 -1 -1 -2 -2 -3 -4 -4 -3 -3 -3 -3 -4 -4 -4 -4
3 3 2 2 1 2 3 3 3 3 1 1 2 2 1 0 0 -0 -1 -2 -3 -4 -4 -4 -4 -3 -3 -3 -4 -4 -4 -4
4 4 3 2 2 1 2 3 3 3 2 1 2 2 1 0 1 0 -2 -3 -4 -4 -4 -4 -4 -4 -3 -3 -3 -4 -4 -4
4 3 2 2 2 1 1 2 3 3 2 2 2 1 0 0 0 -0 -2 -4 -4 -4 -4 -4 -4 -4 -4 -3 -3 -4 -5 -5
2 2 1 1 1 1 1 1 2 2 2 2 1 0 -0 -0 -0 -1 -2 -4 -4 -4 -4 -5 -5 -4 -4 -4 -4 -4 -5 -6
1 0 0 0 0 0 0 1 1 1 1 -0 -1 -2 -2 -2 -1 -1 -2 -3 -3 -4 -4 -5 -5 -4 -4 -4 -4 -5 -6 -6
-0 -0 0 0 0 0 0 0 1 0 -1 -2 -2 -2 -3 -3 -3 -2 -1 -1 -2 -2 -3 -3 -4 -4 -5 -5 -5 -5 -6 -6
-0 -0 0 1 1 1 0 0 -0 -1 -2 -2 -2 -3 -4 -4 -4 -3 -2 -1 -1 -1 -1 -1 -2 -3 -5 -5 -5 -5 -5 -6
-0 0 1 2 2 2 1 1 0 -1 -1 -1 -1 -3 -4 -4 -4 -4 -4 -3 -3 -3 -2 -2 -2 -3 -4 -5 -6 -6 -6 -6
1 2 3 5 5 4 5 4 3 1 0 -0 -1 -2 -4 -4 -4 -4 -4 -5 -5 -5 -5 -4 -3 -3 -4 -5 -6 -6 -6 -6
4 4 6 7 7 7 7 7 6 4 3 2 0 -1 -3 -4 -4 -3 -4 -4 -5 -6 -6 -5 -5 -5 -5 -5 -5 -6 -6 -6
6 7 7 8 8 8 8 8 8 7 6 4 2 1 -1 -3 -4 -3 -3 -3 -4 -5 -5 -5 -5 -5 -5 -5 -5 -5 -6 -6
7 8 8 8 8 8 8 8 8 8 8 7 5 3 1 -1 -2 -2 -1 -1 -2 -3 -4 -4 -4 -4 -4 -4 -4 -5 -5 -6
7 8 9 9 9 9 9 9 9 9 10 10 8 6 5 3 1 -0 1 1 0 -1 -2 -3 -3 -3 -3 -3 -3 -4 -5 -5
8 9 10 9 9 9 9 9 9 9 10 11 9 8 6 5 3 1 2 2 2 0 -1 -2 -2 -2 -2 -2 -3 -3 -4 -5